sat.trackr.live / text

‹ back to catalog

BUGSAT-1 (TITA)

NORAD 40014 · 2014-033E

PAYLOAD ACTIVE UNKNOWN

§ Identity

Operator
Country
ARGN
Launch date
2014-06-19
Launch site
DLS
Launch vehicle
Mass (kg)
RCS (m²)
0.27

Purposes: tech_demo

External: N2YO · Heavens-Above · Gunter

§ Orbital elements

Epoch: 2026-09-20T05:06:14.255136Z

Period
94.96 min
Inclination
98.0424°
Eccentricity
0.0026724
Mean motion
15.16407697 rev/d
Perigee alt
498.3 km
Apogee alt
535.1 km
Semi-major
6,894.8 km
B*
2.2067e-4
RAAN
1.3762°
Arg perigee
213.8133°
Mean anomaly
146.1395°
Rev number
67,023

§ Raw data

BUGSAT-1 (TITA)1 40014U 14033E   26263.21266499  .00004248  00000+0  22067-3 0  99952 40014  98.0424   1.3762 0026724 213.8133 146.1395 15.16407697670232

JSON: /api/v1/satellites/40014 · /tle

For live sub-satellite position, see the globe view (requires WebGL).

§ Visibility from observer

Set your observer location to see the next 7 days of passes ≥ 10°. The values pass through the URL so the page stays shareable.

No JS? Fill the form by hand. The geolocation button needs JavaScript.

§ Radio — SatNOGS DB

ModeDescriptionDownlinkUplink
AFSK 437.445 AFSK 1200bps 437.445 MHz
GMSK 437.445 GMSK 9600bps 437.445 MHz
FSK AX.25 beacon 437.445 MHz

3 transmitters · refreshed weekly from db.satnogs.org